sat.trackr.live / text

‹ back to catalog

STARLINK-35108

NORAD 65738 · 2025-216E

PAYLOAD ACTIVE UNKNOWN

§ Identity

Operator
Country
US
Launch date
2025-09-25
Launch site
AFETR
Launch vehicle
Mass (kg)
RCS (m²)

Purposes: comms

External: N2YO · Heavens-Above · Gunter

§ Orbital elements

Epoch: 2026-09-20T09:37:37.302816Z

Period
93.85 min
Inclination
53.1579°
Eccentricity
0.0001852
Mean motion
15.34396215 rev/d
Perigee alt
461.4 km
Apogee alt
464.0 km
Semi-major
6,840.9 km
B*
4.5910e-4
RAAN
146.4359°
Arg perigee
79.2908°
Mean anomaly
280.8303°
Rev number
5,643

§ Raw data

STARLINK-351081 65738U 25216E   26263.40112619  .00015165  00000+0  45910-3 0  99972 65738  53.1579 146.4359 0001852  79.2908 280.8303 15.34396215 56435

JSON: /api/v1/satellites/65738 · /tle

For live sub-satellite position, see the globe view (requires WebGL).

§ Visibility from observer

Set your observer location to see the next 7 days of passes ≥ 10°. The values pass through the URL so the page stays shareable.

No JS? Fill the form by hand. The geolocation button needs JavaScript.